UAL154 PTPN-PTKK

Flight info

Callsign UAL154
Flight time 1h 0m
Altitude 30000
Route BIRUQ R584 MICNO
Aircraft B738/M-SDE2E3FGHIRWXY/LB1

Departure

Time 2026-04-13 01:07
Airport Pohnpei International Airport (PTPN)

Arrival

Time 2026-04-13 02:07
Airport Chuuk International Airport (PTKK)
Time Latitude Longitude Altitude Speed Heading
2026-04-13 00:37 6.98193 158.20393 17 ft 0 kts 178°
2026-04-13 00:52 6.98205 158.20393 17 ft 4 kts 171°
2026-04-13 00:52 6.98231 158.20389 18 ft 4 kts 169°
2026-04-13 00:53 6.98256 158.20380 19 ft 4 kts 143°
2026-04-13 00:53 6.98271 158.20363 17 ft 4 kts 86°
2026-04-13 00:53 6.98267 158.20353 20 ft 1 kts
2026-04-13 00:55 6.98278 158.20354 17 ft 6 kts
2026-04-13 00:55 6.98335 158.20356 17 ft 9 kts
2026-04-13 00:55 6.98351 158.20356 17 ft 0 kts
2026-04-13 01:02 6.98375 158.20356 17 ft 8 kts
2026-04-13 01:02 6.98412 158.20357 18 ft 0 kts
2026-04-13 01:04 6.98415 158.20357 18 ft 2 kts
2026-04-13 01:04 6.98458 158.20356 22 ft 8 kts 354°
2026-04-13 01:04 6.98502 158.20331 20 ft 7 kts 304°
2026-04-13 01:04 6.98514 158.20277 19 ft 8 kts 271°
2026-04-13 01:05 6.98512 158.20220 20 ft 8 kts 267°
2026-04-13 01:05 6.98497 158.20167 20 ft 8 kts 242°
2026-04-13 01:05 6.98478 158.20118 20 ft 8 kts 263°
2026-04-13 01:05 6.98508 158.20090 21 ft 8 kts 29°
2026-04-13 01:06 6.98517 158.20120 20 ft 0 kts 92°
2026-04-13 01:06 6.98515 158.20285 19 ft 63 kts 90°
2026-04-13 01:06 6.98513 158.20990 21 ft 136 kts 90°
2026-04-13 01:07 6.98509 158.22134 241 ft 178 kts 90°
2026-04-13 01:07 6.98562 158.23359 1232 ft 177 kts 89°
2026-04-13 01:07 6.98883 158.24600 1830 ft 201 kts 60°
2026-04-13 01:07 7.00038 158.25571 2089 ft 239 kts 22°
2026-04-13 01:08 7.01792 158.25700 2345 ft 271 kts 345°
2026-04-13 01:08 7.03458 158.24788 2963 ft 276 kts 312°
2026-04-13 01:08 7.04396 158.23154 3741 ft 273 kts 278°
2026-04-13 01:08 7.04500 158.21264 4586 ft 270 kts 264°
2026-04-13 01:09 7.04368 158.19377 5427 ft 270 kts 262°
2026-04-13 01:09 7.04210 158.17504 6361 ft 267 kts 263°
2026-04-13 01:09 7.04067 158.15632 7124 ft 268 kts 263°
2026-04-13 01:09 7.03946 158.13763 7954 ft 267 kts 264°
2026-04-13 01:10 7.03843 158.11898 8792 ft 266 kts 264°
2026-04-13 01:10 7.03751 158.10036 9596 ft 267 kts 264°
2026-04-13 01:10 7.03667 158.08161 10244 ft 273 kts 264°
2026-04-13 01:10 7.03583 158.06198 10401 ft 295 kts 265°
2026-04-13 01:11 7.03497 158.04060 10561 ft 316 kts 265°
2026-04-13 01:11 7.03414 158.01769 10704 ft 337 kts 265°
2026-04-13 01:11 7.03326 157.99351 10839 ft 354 kts 265°
2026-04-13 01:11 7.03236 157.96824 11119 ft 365 kts 266°
2026-04-13 01:12 7.03146 157.94254 11584 ft 369 kts 266°
2026-04-13 01:12 7.03060 157.91670 12114 ft 370 kts 266°
2026-04-13 01:12 7.02968 157.89064 12470 ft 375 kts 265°
2026-04-13 01:12 7.02873 157.86418 12900 ft 379 kts 266°
2026-04-13 01:13 7.02812 157.84664 13295 ft 378 kts 266°
2026-04-13 01:13 7.02720 157.82011 13765 ft 381 kts 266°
2026-04-13 01:13 7.02595 157.78458 14235 ft 386 kts 266°
2026-04-13 01:13 7.02499 157.75742 14635 ft 389 kts 266°
2026-04-13 01:14 7.02400 157.73014 15040 ft 391 kts 266°
2026-04-13 01:14 7.02336 157.71189 15291 ft 393 kts 266°
2026-04-13 01:14 7.02349 157.68389 15642 ft 399 kts 271°
2026-04-13 01:14 7.02560 157.65626 16005 ft 402 kts 272°
2026-04-13 01:15 7.02806 157.62812 16389 ft 405 kts 273°
2026-04-13 01:15 7.03061 157.59981 16760 ft 407 kts 273°
2026-04-13 01:15 7.03314 157.57121 17118 ft 410 kts 272°
2026-04-13 01:15 7.03561 157.54245 17454 ft 413 kts 272°
2026-04-13 01:16 7.03804 157.51351 17773 ft 416 kts 272°
2026-04-13 01:16 7.04044 157.48434 18099 ft 419 kts 272°
2026-04-13 01:16 7.04283 157.45502 18407 ft 421 kts 272°
2026-04-13 01:16 7.04518 157.42596 18711 ft 422 kts 272°
2026-04-13 01:17 7.04755 157.39641 19006 ft 425 kts 272°
2026-04-13 01:17 7.04993 157.36672 19283 ft 427 kts 272°
2026-04-13 01:17 7.05231 157.33685 19577 ft 428 kts 272°
2026-04-13 01:17 7.05472 157.30685 19855 ft 430 kts 272°
2026-04-13 01:18 7.05714 157.27672 20116 ft 433 kts 272°
2026-04-13 01:18 7.05956 157.24645 20404 ft 434 kts 272°
2026-04-13 01:18 7.06198 157.21608 20681 ft 436 kts 272°
2026-04-13 01:18 7.06441 157.18559 20932 ft 438 kts 272°
2026-04-13 01:19 7.06686 157.15492 21196 ft 440 kts 272°
2026-04-13 01:19 7.06931 157.12423 21456 ft 441 kts 272°
2026-04-13 01:19 7.07171 157.09372 21701 ft 443 kts 272°
2026-04-13 01:19 7.07416 157.06272 21922 ft 445 kts 272°
2026-04-13 01:20 7.07664 157.03162 22145 ft 446 kts 272°
2026-04-13 01:20 7.07911 157.00046 22389 ft 448 kts 272°
2026-04-13 01:20 7.08161 156.96912 22614 ft 449 kts 272°
2026-04-13 01:20 7.08411 156.93767 22822 ft 451 kts 272°
2026-04-13 01:21 7.08662 156.90618 23029 ft 452 kts 272°
2026-04-13 01:21 7.08913 156.87454 23206 ft 454 kts 272°
2026-04-13 01:21 7.09163 156.84275 23387 ft 456 kts 272°
2026-04-13 01:21 7.09415 156.81087 23552 ft 457 kts 272°
2026-04-13 01:22 7.09667 156.77894 23707 ft 459 kts 272°
2026-04-13 01:22 7.09920 156.74685 23851 ft 460 kts 272°
2026-04-13 01:22 7.10174 156.71461 24003 ft 462 kts 272°
2026-04-13 01:22 7.10428 156.68236 24152 ft 463 kts 272°
2026-04-13 01:23 7.10683 156.64998 24289 ft 465 kts 272°
2026-04-13 01:23 7.10939 156.61741 24414 ft 467 kts 272°
2026-04-13 01:23 7.11196 156.58480 24554 ft 468 kts 272°
2026-04-13 01:23 7.11454 156.55202 24681 ft 470 kts 272°
2026-04-13 01:24 7.11711 156.51914 24799 ft 472 kts 272°
2026-04-13 01:24 7.11969 156.48609 24928 ft 473 kts 272°
2026-04-13 01:24 7.12223 156.45349 25049 ft 474 kts 272°
2026-04-13 01:24 7.12481 156.42036 25165 ft 476 kts 272°
2026-04-13 01:25 7.12743 156.38695 25288 ft 477 kts 272°
2026-04-13 01:25 7.13004 156.35361 25409 ft 478 kts 272°
2026-04-13 01:25 7.13266 156.32012 25537 ft 479 kts 272°
2026-04-13 01:25 7.13527 156.28662 25649 ft 481 kts 272°
2026-04-13 01:26 7.13788 156.25299 25776 ft 482 kts 271°
2026-04-13 01:26 7.14042 156.21973 25890 ft 483 kts 271°
2026-04-13 01:26 7.14302 156.18595 25987 ft 485 kts 271°
2026-04-13 01:26 7.14566 156.15203 26098 ft 486 kts 272°
2026-04-13 01:27 7.14832 156.11805 26220 ft 487 kts 272°
2026-04-13 01:27 7.15097 156.08401 26322 ft 488 kts 272°
2026-04-13 01:27 7.15362 156.04981 26425 ft 489 kts 272°
2026-04-13 01:27 7.15627 156.01563 26519 ft 491 kts 271°
2026-04-13 01:28 7.15891 155.98135 26627 ft 492 kts 271°
2026-04-13 01:28 7.16157 155.94694 26773 ft 492 kts 271°
2026-04-13 01:28 7.16422 155.91256 26931 ft 491 kts 271°
2026-04-13 01:28 7.16687 155.87823 27058 ft 492 kts 271°
2026-04-13 01:29 7.16948 155.84429 27194 ft 492 kts 271°
2026-04-13 01:29 7.17213 155.80992 27363 ft 492 kts 271°
2026-04-13 01:29 7.17478 155.77549 27548 ft 492 kts 271°
2026-04-13 01:29 7.17752 155.74118 27704 ft 492 kts 272°
2026-04-13 01:30 7.18036 155.70676 27810 ft 493 kts 272°
2026-04-13 01:30 7.18309 155.67229 27945 ft 493 kts 272°
2026-04-13 01:30 7.18573 155.63789 28118 ft 493 kts 271°
2026-04-13 01:30 7.18832 155.60349 28284 ft 493 kts 271°
2026-04-13 01:31 7.19088 155.56898 28408 ft 494 kts 271°
2026-04-13 01:31 7.19345 155.53449 28569 ft 494 kts 271°
2026-04-13 01:31 7.19599 155.50045 28763 ft 494 kts 271°
2026-04-13 01:31 7.19858 155.46593 28966 ft 493 kts 271°
2026-04-13 01:32 7.20118 155.43143 29127 ft 494 kts 271°
2026-04-13 01:32 7.20380 155.39675 29278 ft 495 kts 271°
2026-04-13 01:32 7.20640 155.36222 29467 ft 495 kts 271°
2026-04-13 01:32 7.20901 155.32763 29694 ft 495 kts 271°
2026-04-13 01:33 7.21162 155.29308 29812 ft 495 kts 271°
2026-04-13 01:33 7.21683 155.22385 29814 ft 496 kts 271°
2026-04-13 01:34 7.22201 155.15500 29809 ft 495 kts 271°
2026-04-13 01:34 7.22722 155.08575 29808 ft 495 kts 271°
2026-04-13 01:35 7.23247 155.01660 29809 ft 494 kts 271°
2026-04-13 01:35 7.23797 154.94757 29807 ft 494 kts 271°
2026-04-13 01:36 7.24311 154.87861 29812 ft 494 kts 271°
2026-04-13 01:36 7.24808 154.81004 29804 ft 494 kts 271°
2026-04-13 01:37 7.25314 154.74095 29810 ft 494 kts 271°
2026-04-13 01:37 7.25823 154.67191 29807 ft 495 kts 271°
2026-04-13 01:38 7.26334 154.60268 29803 ft 496 kts 271°
2026-04-13 01:38 7.26845 154.53338 29804 ft 496 kts 271°
2026-04-13 01:39 7.27357 154.46393 29801 ft 497 kts 271°
2026-04-13 01:39 7.27865 154.39474 29802 ft 497 kts 271°
2026-04-13 01:40 7.28378 154.32509 29798 ft 498 kts 270°
2026-04-13 01:40 7.28889 154.25537 29802 ft 498 kts 270°
2026-04-13 01:41 7.29397 154.18579 29799 ft 498 kts 270°
2026-04-13 01:41 7.29907 154.11608 29798 ft 499 kts 270°
2026-04-13 01:42 7.30415 154.04639 29796 ft 498 kts 270°
2026-04-13 01:42 7.30922 153.97679 29794 ft 498 kts 270°
2026-04-13 01:43 7.31928 153.83792 29791 ft 498 kts 270°
2026-04-13 01:44 7.32432 153.76835 29791 ft 497 kts 270°
2026-04-13 01:44 7.32935 153.69879 29791 ft 497 kts 270°
2026-04-13 01:45 7.33435 153.62932 29791 ft 497 kts 270°
2026-04-13 01:45 7.33931 153.56038 29784 ft 496 kts 270°
2026-04-13 01:45 7.34180 153.52560 29174 ft 502 kts 270°
2026-04-13 01:46 7.34431 153.49045 28371 ft 498 kts 270°
2026-04-13 01:46 7.34681 153.45572 27494 ft 497 kts 271°
2026-04-13 01:46 7.34929 153.42108 26593 ft 495 kts 271°
2026-04-13 01:46 7.35177 153.38655 25672 ft 494 kts 271°
2026-04-13 01:47 7.35422 153.35231 25100 ft 485 kts 271°
2026-04-13 01:47 7.35664 153.31859 24413 ft 480 kts 271°
2026-04-13 01:47 7.35903 153.28530 23734 ft 474 kts 271°
2026-04-13 01:47 7.36138 153.25239 23272 ft 465 kts 271°
2026-04-13 01:48 7.36368 153.22001 22276 ft 464 kts 271°
2026-04-13 01:48 7.36597 153.18794 21906 ft 450 kts 271°
2026-04-13 01:48 7.36819 153.15691 20960 ft 451 kts 271°
2026-04-13 01:48 7.37039 153.12582 20498 ft 438 kts 271°
2026-04-13 01:49 7.37255 153.09526 19834 ft 434 kts 271°
2026-04-13 01:49 7.37468 153.06522 19095 ft 431 kts 271°
2026-04-13 01:49 7.37678 153.03541 18690 ft 420 kts 270°
2026-04-13 01:49 7.37884 153.00617 17820 ft 415 kts 270°
2026-04-13 01:50 7.38086 152.97771 17145 ft 399 kts 270°
2026-04-13 01:50 7.38280 152.95039 16558 ft 383 kts 270°
2026-04-13 01:50 7.38466 152.92408 15995 ft 371 kts 270°
2026-04-13 01:50 7.38646 152.89851 15461 ft 360 kts 270°
2026-04-13 01:51 7.38821 152.87357 14920 ft 354 kts 270°
2026-04-13 01:51 7.38992 152.84858 14413 ft 363 kts 270°
2026-04-13 01:51 7.39168 152.82249 13881 ft 383 kts 271°
2026-04-13 01:51 7.39354 152.79551 13252 ft 385 kts 271°
2026-04-13 01:52 7.39540 152.76906 12641 ft 380 kts 271°
2026-04-13 01:52 7.39727 152.74271 12088 ft 374 kts 271°
2026-04-13 01:52 7.39911 152.71670 11517 ft 370 kts 271°
2026-04-13 01:52 7.40092 152.69102 11107 ft 362 kts 271°
2026-04-13 01:53 7.40268 152.66628 10973 ft 347 kts 271°
2026-04-13 01:53 7.40437 152.64249 10827 ft 334 kts 270°
2026-04-13 01:53 7.40598 152.61949 10689 ft 322 kts 270°
2026-04-13 01:53 7.40751 152.59736 10562 ft 311 kts 270°
2026-04-13 01:54 7.40898 152.57595 10437 ft 301 kts 270°
2026-04-13 01:54 7.41042 152.55525 10318 ft 291 kts 270°
2026-04-13 01:54 7.41182 152.53520 10203 ft 282 kts 270°
2026-04-13 01:54 7.41315 152.51602 10091 ft 273 kts 270°
2026-04-13 01:55 7.41443 152.49723 9987 ft 264 kts 270°
2026-04-13 01:55 7.41567 152.47903 9879 ft 256 kts 270°
2026-04-13 01:55 7.41690 152.46139 9780 ft 248 kts 270°
2026-04-13 01:55 7.41810 152.44413 9541 ft 246 kts 270°
2026-04-13 01:56 7.41927 152.42698 9313 ft 244 kts 270°
2026-04-13 01:56 7.42046 152.40991 9052 ft 243 kts 269°
2026-04-13 01:56 7.42163 152.39296 8794 ft 241 kts 270°
2026-04-13 01:56 7.42279 152.37624 8564 ft 238 kts 269°
2026-04-13 01:57 7.42393 152.35963 8318 ft 236 kts 269°
2026-04-13 01:57 7.42515 152.34321 8084 ft 235 kts 272°
2026-04-13 01:57 7.42820 152.32748 8093 ft 230 kts 278°
2026-04-13 01:57 7.43223 152.31163 7863 ft 239 kts 278°
2026-04-13 01:58 7.43652 152.29495 7638 ft 253 kts 279°
2026-04-13 01:58 7.44098 152.27757 7347 ft 257 kts 279°
2026-04-13 01:58 7.44543 152.26014 7064 ft 256 kts 279°
2026-04-13 01:58 7.44983 152.24275 6785 ft 256 kts 279°
2026-04-13 01:59 7.45418 152.22541 6509 ft 256 kts 278°
2026-04-13 01:59 7.45852 152.20811 6243 ft 254 kts 278°
2026-04-13 01:59 7.46135 152.19671 6058 ft 253 kts 278°
2026-04-13 01:59 7.46560 152.17951 5771 ft 252 kts 278°
2026-04-13 02:00 7.46984 152.16247 5481 ft 250 kts 278°
2026-04-13 02:00 7.47401 152.14535 5236 ft 252 kts 278°
2026-04-13 02:00 7.47835 152.12801 4992 ft 260 kts 285°
2026-04-13 02:00 7.48357 152.11033 4594 ft 265 kts 275°
2026-04-13 02:01 7.48696 152.09248 4585 ft 254 kts 277°
2026-04-13 02:01 7.49087 152.07540 4489 ft 248 kts 278°
2026-04-13 02:01 7.49514 152.05875 4403 ft 242 kts 278°
2026-04-13 02:01 7.49993 152.04267 4275 ft 242 kts 291°
2026-04-13 02:02 7.51025 152.02929 4153 ft 243 kts 309°
2026-04-13 02:02 7.52251 152.01779 3982 ft 239 kts 307°
2026-04-13 02:02 7.53423 152.00625 3747 ft 238 kts 309°
2026-04-13 02:02 7.54616 151.99478 3511 ft 235 kts 309°
2026-04-13 02:03 7.55797 151.98363 3261 ft 228 kts 309°
2026-04-13 02:03 7.56605 151.97106 2980 ft 207 kts 271°
2026-04-13 02:03 7.56361 151.95780 2860 ft 193 kts 238°
2026-04-13 02:03 7.55764 151.94543 2601 ft 200 kts 242°
2026-04-13 02:04 7.54994 151.93424 2351 ft 189 kts 218°
2026-04-13 02:04 7.54051 151.92566 2106 ft 178 kts 225°
2026-04-13 02:04 7.53263 151.91686 1914 ft 156 kts 224°
2026-04-13 02:04 7.52570 151.90935 1673 ft 136 kts 223°
2026-04-13 02:05 7.51956 151.90293 1492 ft 120 kts 223°
2026-04-13 02:05 7.51405 151.89709 1377 ft 116 kts 220°
2026-04-13 02:05 7.50761 151.89084 1223 ft 143 kts 222°
2026-04-13 02:05 7.50047 151.88322 1028 ft 158 kts 223°
2026-04-13 02:06 7.49254 151.87487 798 ft 170 kts 224°
2026-04-13 02:06 7.48424 151.86623 544 ft 169 kts 223°
2026-04-13 02:06 7.47637 151.85808 322 ft 156 kts 224°
2026-04-13 02:06 7.46906 151.85049 102 ft 146 kts 225°
2026-04-13 02:07 7.46231 151.84349 12 ft 125 kts 226°
2026-04-13 02:07 7.45968 151.84066 15 ft 28 kts 221°
2026-04-13 02:07 7.45863 151.84068 14 ft 13 kts 135°
2026-04-13 02:07 7.45810 151.84076 14 ft 6 kts 185°
2026-04-13 02:08 7.45783 151.84101 14 ft 7 kts 64°
2026-04-13 02:08 7.45820 151.84113 14 ft 0 kts 338°